Weather History for El Paso, TX

Change the Weather History Date:

Monday, April 16, 2012

  Actual Average Record
Temperature  
Mean Temperature 58 °F 65 °F  
Max Temperature 74 °F 79 °F 93 °F (1962)
Min Temperature 41 °F 51 °F 34 °F (1910)
Degree Days  
Heating Degree Days 7 3  
Month to date heating degree days 35 66  
Since 1 July heating degree days 2291 2439  
Cooling Degree Days 0 3  
Month to date cooling degree days 51 27  
Year to date cooling degree days 88 37  
Growing Degree Days 7 (Base 50)    
Moisture  
Dew Point 17 °F    
Average Humidity 27    
Maximum Humidity 45    
Minimum Humidity 8    
Precipitation  
Precipitation 0.00 in 0.01 in 0.27 in (1906)
Month to date precipitation 0.09 0.12  
Year to date precipitation 0.85 1.24  
Snow  
Snow 0.00 in - - ()
Month to date snowfall 0.0  
Since 1 July snowfall 3.2  
Snow Depth 0.00 in    
Sea Level Pressure  
Sea Level Pressure 30.02 in    
Wind  
Wind Speed 4 mph (East)    
Max Wind Speed 13 mph    
Max Gust Speed 17 mph    
Visibility 10 miles    
Events      
T = Trace of Precipitation, MM = Missing Value Source: NWS Daily Summary

Daily Weather History Graph

Daily Weather History Graph

Search for Another Location

Airport:

Trip Planner

Search our weather history database for the weather conditions in past years. The results will help you decide how hot, cold, wet, or windy it might be!

Date:

Astronomy

Apr. 16, 2012 Rise Set
Actual Time 6:35 AM MDT 7:35 PM MDT
Civil Twilight 6:09 AM MDT 8:00 PM MDT
Nautical Twilight 5:40 AM MDT 8:30 PM MDT
Astronomical Twilight 5:09 AM MDT 9:01 PM MDT
Moon 3:49 AM MDT (4/16) 3:46 PM MDT (4/16)
Length of Visible Light 13h 50m
Length of Day
13h 00m
Waning Crescent, 18% of the Moon is Illuminated
Apr 16
Waning Crescent
Apr 21
New
Apr 29
First Quarter
May 5
Full
May 12
Last Quarter

Hourly Weather History & Observations

Time (MDT) Temp. Windchill Dew Point Humidity Pressure Visibility Wind Dir Wind Speed Gust Speed Precip Events Conditions
12:51 AM 54.0 °F - 23.0 °F 30% 29.95 in 10.0 mi SSE 9.2 mph - N/A   Clear
1:51 AM 53.6 °F - 23.0 °F 30% 30.06 in 10.0 mi East 8.1 mph - N/A   Clear
2:51 AM 51.1 °F - 25.0 °F 36% 29.96 in 10.0 mi East 5.8 mph - N/A   Clear
3:51 AM 48.9 °F - 24.1 °F 38% 29.98 in 10.0 mi ESE 5.8 mph - N/A   Clear
4:51 AM 46.9 °F - 24.1 °F 41% 30.00 in 10.0 mi Calm Calm - N/A   Clear
5:51 AM 43.0 °F 41.3 °F 23.0 °F 45% 30.02 in 10.0 mi East 3.5 mph - N/A   Clear
6:51 AM 42.1 °F 40.2 °F 21.9 °F 45% 30.06 in 10.0 mi SE 3.5 mph - N/A   Clear
7:51 AM 48.9 °F - 25.0 °F 39% 30.06 in 10.0 mi Calm Calm - N/A   Clear
8:51 AM 53.1 °F - 24.1 °F 32% 30.07 in 10.0 mi NNE 5.8 mph - N/A   Clear
9:51 AM 57.9 °F - 25.0 °F 28% 30.07 in 10.0 mi NE 8.1 mph - N/A   Clear
10:51 AM 64.0 °F - 24.1 °F 22% 30.06 in 10.0 mi Variable 4.6 mph - N/A   Partly Cloudy
11:51 AM 66.0 °F - 21.0 °F 18% 30.05 in 10.0 mi Calm Calm - N/A   Partly Cloudy
12:51 PM 68.0 °F - 17.1 °F 14% 30.03 in 10.0 mi ESE 6.9 mph - N/A   Partly Cloudy
1:51 PM 71.1 °F - 12.9 °F 11% 30.01 in 10.0 mi NW 6.9 mph - N/A   Partly Cloudy
2:51 PM 72.0 °F - 12.0 °F 10% 29.99 in 10.0 mi Variable 3.5 mph - N/A   Partly Cloudy
3:51 PM 73.0 °F - 10.9 °F 9% 29.97 in 10.0 mi Variable 5.8 mph - N/A   Partly Cloudy
4:51 PM 72.0 °F - 9.0 °F 9% 29.97 in 10.0 mi SW 5.8 mph - N/A   Partly Cloudy
5:51 PM 73.0 °F - 8.1 °F 8% 29.98 in 10.0 mi Variable 5.8 mph - N/A   Partly Cloudy
6:51 PM 71.1 °F - 9.0 °F 9% 29.99 in 10.0 mi Calm Calm - N/A   Clear
7:51 PM 70.0 °F - 10.9 °F 10% 29.99 in 10.0 mi North 4.6 mph - N/A   Clear
8:51 PM 64.0 °F - 10.9 °F 13% 30.02 in 10.0 mi East 5.8 mph - N/A   Clear
9:51 PM 60.1 °F - 10.9 °F 14% 30.03 in 10.0 mi East 5.8 mph - N/A   Clear
10:51 PM 59.0 °F - 12.0 °F 16% 30.03 in 10.0 mi Calm Calm - N/A   Clear
11:51 PM 61.0 °F - 14.0 °F 16% 30.03 in 10.0 mi Calm Calm - N/A   Clear